Location: Limoges
(45.8354°N, 1.2645°E)
Time: 19:18:52
(UTC+02:00)

Courier 1B Rocket - Pass Details

Date: 23 February 2024
Orbit: 920 x 1201 km, 28.2° (Epoch: 20 April)

Event Time Altitude Azimuth Distance (km) Brightness Sun altitude
Rises 07:39:07 0° 243° (WSW) 3,560 7.5 -1.9°
Reaches altitude 10° 07:43:10 10° 218° (SW) 2,644 7.1 -1.2°
Maximum altitude 07:46:06 14° 190° (S) 2,421 7.2 -0.7°
Drops below altitude 10° 07:49:06 10° 162° (SSE) 2,707 7.8 -0.2°
Sets 07:53:21 0° 137° (SE) 3,715 9.2 0.5°
